Hays, KS

8:28 PM CDT on April 28, 2017 (GMT -0500)
Hays Regional

Weather History for KHYS - August, 2014

Change the Weather History Date:

Wednesday, August 6, 2014

  Actual Average Record
Temperature  
Mean Temperature 80 °F -  
Max Temperature 91 °F 86 °F 104 °F (2006)
Min Temperature 69 °F 62 °F 57 °F (2005)
Cooling Degree Days 15    
Growing Degree Days 30 (Base 50)    
Moisture  
Dew Point 62 °F    
Average Humidity 55    
Maximum Humidity 78    
Minimum Humidity 31    
Precipitation  
Precipitation 0.00 in - - ()
Sea Level Pressure  
Sea Level Pressure 29.92 in    
Wind  
Wind Speed 11 mph (West)    
Max Wind Speed 18 mph    
Max Gust Speed 24 mph    
Visibility 10 miles    
Events      
Averages and records for this station are not official NWS values.
T = Trace of Precipitation, MM = Missing Value Source: NWS Daily Summary

Daily Weather History Graph

Daily Weather History Graph

Search for Another Location

Airport or City:

Trip Planner

Search our weather history database for the weather conditions in past years. The results will help you decide how hot, cold, wet, or windy it might be!

Date:

Astronomy

Aug. 06, 2014 Rise Set
Actual Time 6:42 AM CDT 8:42 PM CDT
Civil Twilight 6:13 AM CDT 9:11 PM CDT
Nautical Twilight 5:37 AM CDT 9:47 PM CDT
Astronomical Twilight 4:59 AM CDT 10:25 PM CDT
Moon 5:01 PM CDT (8/6) 2:19 AM CDT (8/6)
Length of Visible Light 14h 58m
Length of Day
13h 59m
Waxing Gibbous, 78% of the Moon is Illuminated
Aug 6
Waxing Gibbous
Aug 10
Full
Aug 17
Last Quarter
Aug 25
New
Sep 2
First Quarter

Hourly Weather History & Observations

Time (CDT) Temp. Heat Index Dew Point Humidity Pressure Visibility Wind Dir Wind Speed Gust Speed Precip Events Conditions
12:15 AM 78.8 °F - 60.8 °F 54% 29.98 in 10.0 mi South 13.8 mph - N/A   Clear
12:35 AM 78.8 °F - 60.8 °F 54% 29.98 in 10.0 mi South 13.8 mph - N/A   Clear
12:55 AM 78.8 °F - 60.8 °F 54% 29.97 in 10.0 mi South 16.1 mph - N/A   Clear
1:15 AM 78.8 °F - 60.8 °F 54% 29.96 in 10.0 mi South 18.4 mph 23.0 mph N/A   Clear
1:35 AM 78.8 °F - 60.8 °F 54% 29.96 in 10.0 mi South 17.3 mph 23.0 mph N/A   Clear
1:55 AM 78.8 °F - 60.8 °F 54% 29.96 in 10.0 mi South 16.1 mph 24.2 mph N/A   Clear
2:15 AM 78.8 °F - 60.8 °F 54% 29.96 in 10.0 mi South 17.3 mph 23.0 mph N/A   Clear
2:35 AM 78.8 °F - 60.8 °F 54% 29.96 in 10.0 mi South 17.3 mph 24.2 mph N/A   Clear
2:55 AM 77.0 °F - 60.8 °F 57% 29.99 in 10.0 mi SW 15.0 mph 19.6 mph N/A   Mostly Cloudy
3:15 AM 73.4 °F - 62.6 °F 69% 30.00 in 10.0 mi SW 12.7 mph - N/A   Mostly Cloudy
3:35 AM 73.4 °F - 62.6 °F 69% 29.98 in 10.0 mi WSW 8.1 mph - N/A   Overcast
3:55 AM 71.6 °F - 62.6 °F 73% 29.97 in 10.0 mi SSW 8.1 mph - N/A   Partly Cloudy
4:15 AM 71.6 °F - 62.6 °F 73% 29.95 in 10.0 mi South 8.1 mph - N/A   Clear
4:35 AM 71.6 °F - 62.6 °F 73% 29.94 in 10.0 mi South 6.9 mph - N/A   Clear
4:55 AM 71.6 °F - 62.6 °F 73% 29.93 in 10.0 mi South 11.5 mph - N/A   Clear
5:15 AM 71.6 °F - 62.6 °F 73% 29.92 in 10.0 mi SSE 10.4 mph - N/A   Mostly Cloudy
5:35 AM 71.6 °F - 62.6 °F 73% 29.91 in 10.0 mi SE 8.1 mph - N/A   Mostly Cloudy
5:55 AM 71.6 °F - 62.6 °F 73% 29.92 in 10.0 mi WSW 4.6 mph - N/A   Mostly Cloudy
6:15 AM 71.6 °F - 62.6 °F 73% 29.93 in 10.0 mi West 6.9 mph - N/A   Partly Cloudy
6:35 AM 71.6 °F - 62.6 °F 73% 29.94 in 10.0 mi WSW 10.4 mph - N/A   Clear
6:55 AM 69.8 °F - 62.6 °F 78% 29.94 in 10.0 mi West 5.8 mph - N/A   Clear
7:15 AM 69.8 °F - 60.8 °F 73% 29.94 in 10.0 mi WNW 3.5 mph - N/A   Clear
7:35 AM 71.6 °F - 62.6 °F 73% 29.93 in 10.0 mi South 6.9 mph - N/A   Clear
7:55 AM 71.6 °F - 62.6 °F 73% 29.93 in 10.0 mi SSE 4.6 mph - N/A   Clear
8:15 AM 73.4 °F - 62.6 °F 69% 29.93 in 10.0 mi SE 6.9 mph - N/A   Clear
8:35 AM 73.4 °F - 62.6 °F 69% 29.93 in 10.0 mi South 8.1 mph - N/A   Clear
8:55 AM 75.2 °F - 62.6 °F 65% 29.93 in 10.0 mi South 11.5 mph - N/A   Clear
9:15 AM 75.2 °F - 62.6 °F 65% 29.93 in 10.0 mi South 13.8 mph - N/A   Clear
9:35 AM 77.0 °F - 62.6 °F 61% 29.92 in 10.0 mi South 11.5 mph - N/A   Clear
9:55 AM 78.8 °F - 62.6 °F 57% 29.92 in 10.0 mi SW 9.2 mph - N/A   Scattered Clouds
10:15 AM 78.8 °F - 62.6 °F 57% 29.92 in 10.0 mi SW 8.1 mph - N/A   Partly Cloudy
10:35 AM 80.6 °F 82.3 °F 64.4 °F 58% 29.92 in 10.0 mi West 5.8 mph 17.3 mph N/A   Clear
10:55 AM 78.8 °F - 64.4 °F 61% 29.93 in 10.0 mi West 6.9 mph - N/A   Partly Cloudy
11:15 AM 80.6 °F 81.8 °F 62.6 °F 54% 29.93 in 10.0 mi WNW 9.2 mph - N/A   Partly Cloudy
11:35 AM 80.6 °F 81.8 °F 62.6 °F 54% 29.92 in 10.0 mi NW 8.1 mph - N/A   Partly Cloudy
11:55 AM 82.4 °F 83.9 °F 64.4 °F 54% 29.92 in 10.0 mi NNW 4.6 mph - N/A   Clear
12:15 PM 82.4 °F 83.9 °F 64.4 °F 54% 29.93 in 10.0 mi WNW 5.8 mph - N/A   Clear
12:35 PM 84.2 °F 85.6 °F 64.4 °F 51% 29.94 in 10.0 mi NW 8.1 mph - N/A   Clear
12:55 PM 84.2 °F 85.6 °F 64.4 °F 51% 29.94 in 10.0 mi NW 9.2 mph - N/A   Clear
1:15 PM 84.2 °F 85.6 °F 64.4 °F 51% 29.93 in 10.0 mi NW 11.5 mph - N/A   Clear
1:35 PM 84.2 °F 85.6 °F 64.4 °F 51% 29.93 in 10.0 mi NNW 13.8 mph - N/A   Clear
1:55 PM 84.2 °F 85.6 °F 64.4 °F 51% 29.91 in 10.0 mi North 8.1 mph - N/A   Partly Cloudy
2:15 PM 86.0 °F 88.2 °F 66.2 °F 51% 29.93 in 10.0 mi NNW 8.1 mph - N/A   Clear
2:35 PM 86.0 °F 87.3 °F 64.4 °F 48% 29.93 in 10.0 mi NNW 9.2 mph - N/A   Clear
2:55 PM 84.2 °F 85.6 °F 64.4 °F 51% 29.92 in 10.0 mi NNW 4.6 mph - N/A   Clear
3:15 PM 86.0 °F 86.6 °F 62.6 °F 45% 29.91 in 10.0 mi Calm Calm - N/A   Clear
3:35 PM 87.8 °F 88.5 °F 62.6 °F 43% 29.91 in 10.0 mi NNW 5.8 mph - N/A   Clear
3:55 PM 89.6 °F 90.1 °F 62.6 °F 40% 29.90 in 10.0 mi WSW 5.8 mph - N/A   Clear
4:15 PM 89.6 °F 89.5 °F 60.8 °F 38% 29.90 in 10.0 mi NW 6.9 mph - N/A   Clear
4:35 PM 91.4 °F 91.4 °F 60.8 °F 36% 29.89 in 10.0 mi NW 9.2 mph - N/A   Clear
4:55 PM 91.4 °F 91.4 °F 60.8 °F 36% 29.89 in 10.0 mi WNW 4.6 mph - N/A   Clear
5:15 PM 91.4 °F 90.7 °F 59.0 °F 34% 29.88 in 10.0 mi NW 5.8 mph - N/A   Clear
5:35 PM 91.4 °F 89.9 °F 57.2 °F 31% 29.87 in 10.0 mi NNW 5.8 mph - N/A   Clear
5:55 PM 91.4 °F 89.9 °F 57.2 °F 31% 29.87 in 10.0 mi Calm Calm - N/A   Clear
6:15 PM 91.4 °F 90.7 °F 59.0 °F 34% 29.86 in 10.0 mi NNW 3.5 mph - N/A   Clear
6:35 PM 91.4 °F 90.7 °F 59.0 °F 34% 29.86 in 10.0 mi NNW 5.8 mph - N/A   Clear
6:55 PM 91.4 °F 90.7 °F 59.0 °F 34% 29.86 in 10.0 mi NNW 5.8 mph - N/A   Clear
7:15 PM 91.4 °F 90.7 °F 59.0 °F 34% 29.85 in 10.0 mi NNW 5.8 mph - N/A   Clear
7:35 PM 91.4 °F 91.4 °F 60.8 °F 36% 29.86 in 10.0 mi North 5.8 mph - N/A   Clear
7:55 PM 89.6 °F 89.5 °F 60.8 °F 38% 29.86 in 10.0 mi NE 5.8 mph - N/A   Clear
8:15 PM 89.6 °F 90.1 °F 62.6 °F 40% 29.86 in 10.0 mi ENE 5.8 mph - N/A   Clear
8:35 PM 84.2 °F 85.0 °F 62.6 °F 48% 29.86 in 10.0 mi NE 8.1 mph - N/A   Clear
8:55 PM 82.4 °F 82.9 °F 60.8 °F 48% 29.87 in 10.0 mi NE 8.1 mph - N/A   Clear
9:15 PM 82.4 °F 82.9 °F 60.8 °F 48% 29.88 in 10.0 mi NE 8.1 mph - N/A   Clear
9:35 PM 80.6 °F 81.5 °F 60.8 °F 51% 29.89 in 10.0 mi NE 8.1 mph - N/A   Clear
9:55 PM 80.6 °F 81.5 °F 60.8 °F 51% 29.89 in 10.0 mi ENE 10.4 mph - N/A   Clear
10:15 PM 80.6 °F 81.5 °F 60.8 °F 51% 29.90 in 10.0 mi ENE 5.8 mph - N/A   Clear
10:35 PM 80.6 °F 81.5 °F 60.8 °F 51% 29.91 in 10.0 mi ENE 15.0 mph - N/A   Mostly Cloudy
10:55 PM 80.6 °F 81.8 °F 62.6 °F 54% 29.92 in 10.0 mi ENE 13.8 mph 20.7 mph N/A   Mostly Cloudy
11:15 PM 78.8 °F - 64.4 °F 61% 29.92 in 10.0 mi ENE 12.7 mph - N/A   Partly Cloudy
11:35 PM 77.0 °F - 64.4 °F 65% 29.93 in 10.0 mi ENE 9.2 mph - N/A   Clear
11:55 PM 75.2 °F - 64.4 °F 69% 29.94 in 10.0 mi ENE 6.9 mph - N/A   Clear